KA5RUC Weather Reports


time (UTC)temp
C
wind
direction
speed
KPH
gust
KPH
rain 1hr
cm
rain 24hr
cm
rain mn
cm
humidity
%
barometer
mb
20260503215320 10 74 0.0 0.0 0.00 0.00 0.03 78 1016.1
20260503214829 10 46 0.0 0.0 0.00 0.00 0.03 78 1016.4
20260503214320 10 111 0.0 0.0 0.00 0.00 0.03 79 1016.4
20260503213831 10 111 0.0 0.0 0.00 0.00 0.03 79 1016.4
20260503213317 9 111 0.0 0.0 0.00 0.00 0.03 76 1016.9
20260503212824 10 111 0.0 0.0 0.00 0.00 0.03 75 1016.9
20260503212334 10 111 0.0 0.0 0.00 0.00 0.03 72 1016.9
20260503211820 10 112 0.0 0.0 0.00 0.00 0.03 72 1017.8
20260503211330 10 116 1.6 0.0 0.00 0.00 0.03 69 1017.8
20260503210818 11 126 8.0 0.0 0.00 0.00 0.03 63 1017.8
20260503210327 11 311 8.0 0.0 0.00 0.00 0.03 59 1017.5
20260503205820 12 277 6.4 0.0 0.00 0.00 0.03 55 1017.5
20260503205327 12 242 9.7 0.0 0.00 0.00 0.03 53 1017.5
20260503204325 13 263 14.5 0.0 0.00 0.00 0.03 48 1017.4
20260503203833 13 239 12.9 0.0 0.00 0.00 0.03 42 1017.4
20260503203321 14 226 8.0 0.0 0.00 0.00 0.03 39 1016.9
20260503202828 15 205 3.2 0.0 0.00 0.00 0.03 40 1016.9
20260503202317 14 260 4.8 0.0 0.00 0.00 0.03 39 1016.9
20260503201826 15 244 6.4 0.0 0.00 0.00 0.03 39 1016.8
20260503201319 15 236 6.4 0.0 0.00 0.00 0.03 40 1016.8
20260503200828 15 242 6.4 0.0 0.00 0.00 0.03 38 1016.8
20260503200334 15 238 4.8 0.0 0.00 0.00 0.03 38 1017.0
20260503195825 15 274 4.8 0.0 0.00 0.00 0.03 39 1017.0
20260503194824 15 175 9.7 0.0 0.00 0.00 0.03 38 1017.1
20260503194331 15 221 8.0 0.0 0.00 0.00 0.03 38 1017.1
20260503193327 16 208 4.8 0.0 0.00 0.00 0.03 40 1017.5
20260503192818 16 238 4.8 0.0 0.00 0.00 0.03 37 1017.5
20260503192325 16 185 4.8 0.0 0.00 0.00 0.03 39 1017.5
20260503191819 16 190 4.8 0.0 0.00 0.00 0.03 38 1017.6
20260503191327 15 212 8.0 0.0 0.00 0.00 0.03 38 1017.6
20260503190835 16 234 6.4 0.0 0.00 0.00 0.03 38 1017.6
20260503190320 16 239 3.2 0.0 0.00 0.00 0.03 39 1018.1
20260503185832 16 150 4.8 0.0 0.00 0.00 0.03 40 1018.1
20260503185318 15 213 6.4 0.0 0.00 0.00 0.03 38 1018.1
20260503184829 15 244 6.4 0.0 0.00 0.00 0.03 38 1018.1
20260503184316 15 224 6.4 0.0 0.00 0.00 0.03 38 1018.1
20260503183826 15 235 6.4 0.0 0.00 0.00 0.03 39 1018.1
20260503183321 15 188 4.8 0.0 0.00 0.00 0.03 39 1018.6
20260503182828 15 213 4.8 0.0 0.00 0.00 0.03 37 1018.6
20260503182337 15 223 6.4 0.0 0.00 0.00 0.03 40 1018.6
20260503180825 15 169 4.8 0.0 0.00 0.00 0.03 39 1018.6
20260503175334 15 188 6.4 0.0 0.00 0.00 0.03 40 1018.8
20260503174822 14 248 8.0 0.0 0.00 0.00 0.03 40 1019.0
20260503173820 15 265 4.8 0.0 0.00 0.00 0.03 41 1019.0
20260503173331 15 262 6.4 0.0 0.00 0.00 0.03 41 1019.3
20260503172821 14 210 6.4 0.0 0.00 0.00 0.03 40 1019.3
20260503172330 14 267 4.8 0.0 0.00 0.00 0.03 42 1019.3
20260503171819 15 233 3.2 0.0 0.00 0.00 0.00 44 1019.6
20260503171327 14 214 4.8 0.0 0.00 0.00 0.00 43 1019.6
20260503170835 14 201 4.8 0.0 0.00 0.00 0.00 43 1019.6
20260503170322 13 221 6.4 0.0 0.00 0.00 0.00 45 1019.7
20260503150818 11 250 6.4 0.0 0.00 0.00 0.00 53 1020.8
20260503150325 11 224 3.2 0.0 0.00 0.00 0.00 52 1020.8